#timestamp,LO_Frequency,Hit,StdDev 
1593334815.6,286046998.4,N
1593334835.4,286047000.1,N
1593334855.3,286047002.7,N
1593334875.1,286047002.4,N
1593334876.0,286047002.4,N
1593334895.8,286046999.8,N
1593334915.7,286047000.3,N
1593334935.5,286047000.8,N
1593334955.3,286047001.1,N
1593334975.2,286047001.2,N
1593334995.0,286046998.5,N
1593334995.9,286046998.5,N
1593335015.8,286047001.2,N
1593335035.6,286046998.2,N
1593335055.4,286046998.7,N
1593335075.3,286046998.8,N
1593335095.1,286046998.8,N
1593335115.8,286046998.7,N
1593335135.7,286046999.2,N
1593335155.5,286046997.0,N
1593335175.4,286046999.4,N
1593335195.2,286046998.2,N
1593335215.0,286046999.4,N
1593335215.9,286046999.4,N
1593335235.8,286047001.2,N
1593335255.6,286046998.6,N
1593335275.4,286047001.0,N
1593335295.3,286047000.6,N
1593335315.1,286046998.7,N
1593335335.9,286046999.1,N
1593335355.7,286046999.2,N
1593335375.5,286047000.9,N
1593335395.4,286047000.1,N
1593335415.2,286047001.2,N
1593335435.0,286046998.4,N
1593335435.9,286046998.4,N
1593335455.8,286047000.7,N
1593335475.6,286046998.1,N
1593335495.5,286047000.3,N
1593335515.3,286047000.2,N
1593335535.1,286047000.4,N
1593335555.9,286047001.1,N
1593335575.7,286046999.9,N
1593335595.6,286047002.7,N
1593335615.4,286047002.3,N
1593335635.2,286047002.6,N
1593335655.1,286047002.0,N
1593335656.0,286047002.0,N
1593335675.8,286047002.4,N
1593335695.7,286047000.5,N
1593335715.5,286047000.7,N
1593335735.3,286046998.1,N
1593335755.2,286046998.2,N
1593335775.0,286046998.1,N
1593335775.9,286046998.1,N
1593335795.7,286046998.7,N
1593335815.6,286047001.1,N
1593335835.4,286046999.1,N
1593335855.3,286046999.3,N
1593335875.1,286046999.2,N
1593335876.0,286046999.2,N
1593335895.8,286046998.9,N
1593335915.7,286046998.9,N
1593335935.5,286046999.0,N
1593335955.3,286047001.0,N
1593335975.2,286046998.5,N
1593335995.0,286046998.4,N
1593335995.9,286046998.4,N
1593336015.8,286046999.3,N
1593336035.6,286046998.4,N
1593336055.4,286046998.2,N
1593336075.3,286047000.8,N
1593336095.1,286047000.7,N
1593336115.8,286046999.8,N
1593336135.7,286047002.5,N
1593336155.5,286047000.2,N
1593336175.4,286047000.0,N
1593336195.2,286047000.1,N
1593336215.0,286047002.4,N
1593336215.9,286047002.4,N
1593336235.8,286046999.8,N
1593336255.6,286047001.0,N
1593336275.5,286047001.1,N
1593336295.3,286046998.5,N
1593336315.1,286046997.1,N
1593336335.9,286046998.6,N
1593336355.7,286046998.2,N
1593336375.5,286046998.3,N
1593336395.4,286047001.0,N
1593336415.2,286046998.6,N
1593336435.1,286046998.5,N
1593336436.0,286046998.5,N
1593336455.8,286046998.6,N
1593336475.6,286047000.9,N
1593336495.5,286047002.6,N
1593336515.3,286047000.1,N
1593336535.1,286047000.2,N
1593336555.9,286046999.8,N
1593336575.7,286047000.3,N
1593336595.6,286047000.5,N
1593336615.4,286046999.5,N
1593336635.2,286046998.7,N
1593336655.1,286047001.2,N
1593336656.0,286047001.2,N
1593336675.8,286047001.1,N
1593336695.6,286047000.9,N
1593336715.5,286047001.0,N
1593336735.3,286047000.8,N
1593336755.2,286047000.3,N
1593336775.9,286047000.6,N
1593336795.7,286047002.4,N
1593336815.6,286047002.8,N
1593336835.4,286046999.9,N
1593336855.2,286046999.8,N
1593336875.1,286046996.6,N
1593336876.0,286046996.6,N
1593336895.8,286046995.6,N
1593336915.7,286046993.4,Y
1593336935.5,286046996.4,P
1593336955.3,286046993.7,P
1593336975.2,286046993.9,N
1593336995.0,286046994.3,N
1593336995.9,286046994.3,N
1593337015.7,286046993.7,N
1593337035.6,286046998.0,N
1593337055.4,286046992.1,Y
1593337075.3,286046996.8,P
1593337095.1,286046995.6,P
1593337115.8,286046995.4,P
1593337135.7,286046997.6,Y
1593337155.5,286046999.9,P
1593337175.4,286047000.8,N
1593337195.2,286047000.0,N
1593337215.0,286047000.2,N
1593337215.9,286047000.2,N
1593337235.8,286047000.0,N
1593337255.6,286047002.6,N
1593337275.5,286047004.2,N
1593337295.3,286047004.4,N
1593337315.1,286047005.4,N
1593337335.9,286047004.9,N
1593337355.7,286047004.9,N
1593337375.5,286047005.5,N
1593337395.4,286047005.4,N
1593337415.2,286047004.6,N
1593337435.1,286047005.0,N
1593337436.0,286047005.0,N
1593337455.8,286047007.2,N
1593337475.6,286047006.8,N
1593337495.5,286047008.7,N
1593337515.3,286047008.5,N
1593337535.1,286047008.4,N
1593337555.9,286047006.1,N
1593337575.7,286047006.4,N
1593337595.6,286047009.2,N
1593337615.4,286047007.2,N
1593337635.2,286047007.0,N
1593337655.1,286047007.6,N
1593337656.0,286047007.6,N
1593337675.8,286047007.1,N
1593337695.6,286047007.3,N
1593337715.5,286047006.9,N
1593337735.3,286047006.9,N
1593337755.2,286047007.4,Y
1593337775.9,286047000.5,P
1593337795.7,286047000.5,N
1593337815.6,286047000.4,N
1593337835.4,286047000.1,N
1593337855.2,286047000.3,N
1593337875.1,286047000.7,N
1593337876.0,286047000.7,N
1593337895.8,286047000.9,N
1593337915.7,286046998.5,N
1593337935.5,286046996.7,N
1593337955.3,286046997.9,N
1593337975.2,286046995.7,N
1593337995.0,286046996.2,N
1593337995.9,286046996.2,N
1593338015.7,286046995.5,N
1593338035.6,286046993.4,N
1593338055.4,286046996.0,N
1593338075.3,286046993.9,N
1593338095.1,286046994.1,N
1593338096.0,286046994.1,N
1593338115.8,286046993.9,N
1593338135.7,286046994.0,N
1593338155.5,286046994.5,N
1593338175.3,286046991.9,N
1593338195.2,286046992.1,N
1593338215.0,286046994.7,N
1593338215.9,286046994.7,N
1593338235.8,286046992.2,N
1593338255.6,286046994.7,N
1593338275.4,286046994.3,N
1593338295.3,286046994.0,N
1593338315.1,286046995.9,N
1593338335.8,286046993.6,N
1593338355.7,286046991.8,Y
1593338375.5,286046996.8,P
1593338395.4,286046997.9,P
